Stations météo

réclame
Mon MeteoGroup
Hastveda, Suède (2629): Température de l'air & dewpoint: 18.01.2018 10:00:00 - 24.01.2018 10:00:00 (CET)Hastveda, Suède (2629): Vitesse du vent & gusts: 18.01.2018 10:00:00 - 24.01.2018 10:00:00 (CET)Hastveda, Suède (2629): Direction du vent: 18.01.2018 10:00:00 - 24.01.2018 10:00:00 (CET)Hastveda, Suède (2629): reduced air pressure: 18.01.2018 10:00:00 - 24.01.2018 10:00:00 (CET)Hastveda, Suède (2629): visibility: 18.01.2018 10:00:00 - 24.01.2018 10:00:00 (CET)Hastveda, Suède (2629): Quantités de précipitations: 18.01.2018 10:00:00 - 24.01.2018 10:00:00 (CET)
Date & Time tt [°C] td [°C] ff [km/h] ff [knt] fx [km/h] fx [knt] dd ppp [hPa] vv [km] rr [mm]
24.01.2018 10:00:00 5,7 5,4 11 6 22 12 SW 1008,3 9 0,0
24.01.2018 09:00:00 5,3 5,0 11 6 29 16 SW 1008,2 9 0,0
24.01.2018 08:00:00 5,7 5,6 14 8 32 18 WSW 1007,7 9 0,0
24.01.2018 07:00:00 5,6 5,5 14 8 32 18 WSW 1007,3 4,7 0,0
24.01.2018 06:00:00 5,1 5,0 18 10 32 18 SW 1006,6 4,5 0,0
24.01.2018 05:00:00 4,7 4,6 18 10 36 19 SW 1006,6 2,2 0,1
24.01.2018 04:00:00 4,2 4,1 18 10 32 18 SSW 1006,4 2,8 0,3
24.01.2018 03:00:00 3,2 3,1 18 10 - - S 1007,0 1,9 0,0
24.01.2018 02:00:00 - - - - 29 16 - - - 0,7
24.01.2018 01:00:00 1,9 1,8 14 8 25 14 SSE 1009,7 0,9 0,4
24.01.2018 00:00:00 - - - - 25 14 - 1010,9 - 0,3
23.01.2018 23:00:00 0,8 0,7 11 6 22 12 SSE 1012,8 0,2 0,0
23.01.2018 22:00:00 0,3 0,2 14 8 25 14 SSE 1014,0 0,2 0,0
23.01.2018 21:00:00 -0,1 -0,2 11 6 22 12 SSE 1014,9 0,6 0,0
23.01.2018 20:00:00 -0,6 -0,9 11 6 18 10 SE 1015,8 1,5 0,2
23.01.2018 19:00:00 -0,9 -1,5 11 6 22 12 SE 1016,9 3,7 0,0
23.01.2018 18:00:00 -1,1 -1,7 7 4 22 12 SE 1018,1 4,2 0,0
23.01.2018 17:00:00 -1,0 -2,0 11 6 22 12 SSE 1018,7 6 0,0
23.01.2018 16:00:00 -0,7 -2,0 11 6 22 12 S 1019,3 7 0,0
23.01.2018 15:00:00 -0,8 -2,2 11 6 22 12 SSE 1019,5 10 0,0
23.01.2018 14:00:00 -0,8 -2,4 11 6 22 12 SSE 1019,6 9 0,0
23.01.2018 13:00:00 -0,7 -2,7 11 6 18 10 S 1020,0 9 0,0
23.01.2018 12:00:00 -0,9 -2,6 7 4 18 10 SSE 1021,0 9 0,0
23.01.2018 11:00:00 -1,0 -3,0 11 6 18 10 S 1021,3 10 0,0
23.01.2018 10:00:00 -1,5 -2,9 7 4 14 8 SSE 1020,6 9 0,0
23.01.2018 09:00:00 -2,0 -3,3 7 4 14 8 S 1020,2 10 0,0
23.01.2018 08:00:00 -2,5 -3,0 7 4 14 8 SE 1019,7 7 0,0
23.01.2018 07:00:00 -2,5 -2,8 7 4 7 4 ESE 1019,4 5 0,0
23.01.2018 06:00:00 -2,2 -2,5 7 4 7 4 E 1019,4 5 0,0
23.01.2018 05:00:00 -2,1 -2,4 7 4 11 6 E 1019,0 6 0,0
23.01.2018 04:00:00 -2,1 -2,2 7 4 11 6 ESE 1018,3 6 0,0
23.01.2018 03:00:00 -2,3 -2,6 7 4 7 4 ESE 1017,9 5 0,0
23.01.2018 02:00:00 -1,9 -2,5 7 4 11 6 E 1017,9 5 0,0
23.01.2018 01:00:00 -1,1 -1,5 7 4 14 8 E 1017,4 6 0,0
23.01.2018 00:00:00 -1,1 -1,5 7 4 18 10 E 1016,5 5 0,0
22.01.2018 23:00:00 -1,1 -1,4 7 4 14 8 ESE 1015,9 5 0,0
22.01.2018 22:00:00 -1,8 -2,1 11 6 14 8 E 1015,7 5 0,0
22.01.2018 21:00:00 -2,5 -2,6 7 4 11 6 E 1015,3 5 0,0
22.01.2018 20:00:00 -1,9 -2,2 7 4 14 8 E 1014,5 7 0,0
22.01.2018 19:00:00 -1,7 -2,0 7 4 18 10 E 1014,2 7 0,0
22.01.2018 18:00:00 -1,7 -1,8 11 6 22 12 ESE 1013,5 7 0,0
22.01.2018 17:00:00 -1,6 -1,9 7 4 14 8 E 1012,9 7 0,0
22.01.2018 16:00:00 -1,3 -1,7 7 4 18 10 E 1012,8 8 0,0
22.01.2018 15:00:00 -0,6 -1,2 7 4 18 10 SE 1012,7 10 0,0
22.01.2018 14:00:00 -0,3 -1,0 7 4 18 10 SE 1012,8 8 0,0
22.01.2018 13:00:00 - - - - - - - - - -
22.01.2018 12:00:00 - - - - - - - - - -
22.01.2018 11:00:00 - - - - - - - - - -
22.01.2018 10:00:00 -1,2 -1,3 7 4 14 8 ESE 1013,8 5 0,0
22.01.2018 09:00:00 -1,4 -1,5 7 4 18 10 SSE 1013,9 7 0,0
22.01.2018 08:00:00 -1,2 -1,3 7 4 18 10 SSE 1013,7 5 0,0
22.01.2018 07:00:00 -1,1 -1,2 4 2 14 8 SE 1013,7 3,1 0,0
22.01.2018 06:00:00 -1,0 -1,1 7 4 14 8 S 1014,1 2,5 0,0
22.01.2018 05:00:00 -0,9 -1,0 7 4 11 6 ESE 1014,3 2,1 0,2
22.01.2018 04:00:00 -0,9 -1,0 4 2 7 4 ESE 1014,8 2,1 0,1
22.01.2018 03:00:00 -0,8 -0,9 4 2 7 4 E 1015,3 2,1 0,0
22.01.2018 02:00:00 -0,8 -0,9 4 2 11 6 SE 1015,6 2,1 0,0
22.01.2018 01:00:00 -0,7 -0,8 7 4 11 6 SSE 1016,2 2,8 0,0
22.01.2018 00:00:00 -0,6 -0,7 4 2 7 4 S 1016,5 3,1 0,0
21.01.2018 23:00:00 -0,5 -0,6 4 2 7 4 SSE 1016,6 2,7 0,0
21.01.2018 22:00:00 -0,3 -0,4 4 2 4 2 SSE 1016,5 2,6 0,0
21.01.2018 21:00:00 -0,3 -0,4 0 0 4 2 N 1016,6 2,6 0,0
21.01.2018 20:00:00 -0,4 -0,5 0 0 4 2 N 1016,7 7 0,0
21.01.2018 19:00:00 -0,3 -0,4 0 0 4 2 N 1016,6 6 0,0
21.01.2018 18:00:00 -0,2 -0,3 0 0 4 2 N 1016,7 5 0,0
21.01.2018 17:00:00 -0,1 -0,3 4 2 4 2 NW 1016,6 5 0,0
21.01.2018 16:00:00 0,0 -0,1 0 0 4 2 N 1016,3 5 0,0
21.01.2018 15:00:00 0,2 0,1 4 2 7 4 NNW 1015,9 6 0,0
21.01.2018 14:00:00 0,4 0,3 4 2 7 4 N 1015,4 9 0,0
21.01.2018 13:00:00 0,2 0,1 0 0 4 2 N 1014,9 10 0,0
21.01.2018 12:00:00 0,2 0,1 0 0 7 4 N 1014,3 5 0,0
21.01.2018 11:00:00 -0,1 -0,1 4 2 7 4 N 1013,8 12 0,0
21.01.2018 10:00:00 -0,4 -0,4 0 0 7 4 N 1013,1 7 0,0
21.01.2018 09:00:00 -0,6 -0,6 4 2 7 4 NNE 1012,2 8 0,0
21.01.2018 08:00:00 -0,8 -0,8 4 2 11 6 NE 1011,5 5 0,0
21.01.2018 07:00:00 -0,7 -0,7 4 2 11 6 NE 1010,6 4,6 0,0
21.01.2018 06:00:00 - - - - 7 4 - 1009,9 - 0,0
21.01.2018 05:00:00 -0,6 -0,6 4 2 11 6 NE 1009,0 4,6 0,0
21.01.2018 04:00:00 -0,4 -0,4 4 2 11 6 NE 1008,2 3,5 0,0
21.01.2018 03:00:00 -0,3 -0,3 7 4 11 6 NE 1007,8 1,8 0,0
21.01.2018 02:00:00 -0,3 -0,3 4 2 11 6 ENE 1007,0 0,9 0,1
21.01.2018 01:00:00 -0,3 -0,3 4 2 7 4 NE 1006,4 0,6 0,0
21.01.2018 00:00:00 -0,2 -0,3 0 0 7 4 N 1005,8 0,4 0,0
20.01.2018 23:00:00 -0,2 -0,3 4 2 7 4 NNE 1005,5 0,6 0,1
20.01.2018 22:00:00 -0,2 -0,3 4 2 7 4 ENE 1005,0 0,5 0,0
20.01.2018 21:00:00 -0,2 -0,3 4 2 7 4 ENE 1004,8 0,6 0,0
20.01.2018 20:00:00 -0,1 -0,2 4 2 7 4 SSE 1004,4 1,0 0,0
20.01.2018 19:00:00 -0,1 -0,2 4 2 7 4 ESE 1004,2 1,1 0,0
20.01.2018 18:00:00 -0,1 -0,2 4 2 7 4 ESE 1003,9 2,1 0,0
20.01.2018 17:00:00 0,0 -0,1 4 2 7 4 ESE 1004,0 0,9 0,0
20.01.2018 16:00:00 0,0 -0,1 4 2 7 4 ENE 1003,7 0,7 0,0
20.01.2018 15:00:00 0,2 0,1 4 2 7 4 E 1003,8 2,6 0,1
20.01.2018 14:00:00 0,2 0,1 0 0 7 4 N 1003,8 1,0 0,2
20.01.2018 13:00:00 0,1 0,0 4 2 11 6 E 1003,9 2,6 0,1
20.01.2018 12:00:00 0,1 0,0 4 2 7 4 E 1004,4 6 0,1
20.01.2018 11:00:00 0,0 -0,1 4 2 7 4 E 1004,7 3,4 0,2
20.01.2018 10:00:00 -0,3 -0,4 4 2 11 6 E 1004,7 1,5 0,7
20.01.2018 09:00:00 -0,4 -0,5 4 2 11 6 E 1004,5 1,4 0,3
20.01.2018 08:00:00 -0,5 -0,6 4 2 7 4 E 1004,3 1,1 0,6
20.01.2018 07:00:00 -0,6 -0,7 4 2 7 4 E 1004,4 0,7 0,3
20.01.2018 06:00:00 -0,7 -0,8 7 4 7 4 ENE 1004,6 2,9 0,0
20.01.2018 05:00:00 -0,8 -0,9 4 2 11 6 E 1004,7 5 0,0
20.01.2018 04:00:00 -0,9 -1,0 7 4 11 6 E 1004,8 5 0,0
20.01.2018 03:00:00 -1,4 -1,5 7 4 11 6 E 1005,2 8 0,0
20.01.2018 02:00:00 -1,5 -1,6 4 2 7 4 E 1005,2 9 0,0
20.01.2018 01:00:00 -1,7 -1,8 7 4 11 6 E 1005,4 10 0,1
20.01.2018 00:00:00 -1,8 -1,9 7 4 7 4 NE 1005,5 18 0,0
19.01.2018 23:00:00 -1,7 -2,0 4 2 7 4 E 1005,4 18 0,0
19.01.2018 22:00:00 -1,8 -1,9 4 2 7 4 ENE 1005,4 16 0,0
19.01.2018 21:00:00 -1,7 -2,0 4 2 11 6 SE 1005,2 28 0,0
19.01.2018 20:00:00 -1,6 -1,9 4 2 7 4 SE 1005,1 35 0,0
19.01.2018 19:00:00 -1,5 -1,8 4 2 7 4 ESE 1004,8 17 0,0
19.01.2018 18:00:00 -1,5 -1,8 7 4 7 4 E 1004,6 30 0,0
19.01.2018 17:00:00 -1,7 -2,0 0 0 4 2 N 1004,7 30 0,0
19.01.2018 16:00:00 -1,7 -2,0 0 0 7 4 N 1004,2 45 0,0
19.01.2018 15:00:00 -0,8 -1,2 4 2 4 2 E 1003,8 45 0,0
19.01.2018 14:00:00 -0,8 -1,2 4 2 7 4 SW 1003,7 45 0,0
19.01.2018 13:00:00 -1,3 -1,6 0 0 4 2 N 1003,5 40 0,0
19.01.2018 12:00:00 -2,1 -2,2 4 2 4 2 NNW 1003,2 35 0,0
19.01.2018 11:00:00 -3,0 -3,3 0 0 4 2 N 1002,8 45 0,0
19.01.2018 10:00:00 -4,2 -4,3 4 2 7 4 N 1002,3 50 0,0
19.01.2018 09:00:00 -4,6 -4,9 4 2 7 4 N 1001,6 50 0,0
19.01.2018 08:00:00 -4,4 -4,5 4 2 11 6 N 1000,7 45 0,0
19.01.2018 07:00:00 -4,0 -4,1 7 4 11 6 NNW 999,9 50 0,0
19.01.2018 06:00:00 -3,6 -3,7 7 4 14 8 NNW 999,6 45 0,0
19.01.2018 05:00:00 -3,3 -3,4 7 4 11 6 NW 998,9 50 0,0
19.01.2018 04:00:00 -2,8 -2,9 7 4 7 4 NW 998,2 45 0,0
19.01.2018 03:00:00 -2,1 -2,2 4 2 11 6 NW 997,8 45 0,0
19.01.2018 02:00:00 -2,2 -2,3 4 2 7 4 N 997,3 45 0,0
19.01.2018 01:00:00 -2,2 -2,3 4 2 11 6 N 996,6 45 0,0
19.01.2018 00:00:00 -2,3 -2,4 7 4 14 8 NNW 996,0 19 0,0
18.01.2018 23:00:00 -1,8 -1,9 11 6 14 8 NNW 995,4 13 0,0
18.01.2018 22:00:00 -1,2 -1,3 4 2 14 8 N 994,6 21 0,0
18.01.2018 21:00:00 -1,1 -1,2 7 4 14 8 N 993,9 16 0,0
18.01.2018 20:00:00 -0,7 -0,8 7 4 14 8 NNE 992,9 15 0,0
18.01.2018 19:00:00 -0,4 -0,5 7 4 14 8 NNE 991,9 13 0,0
18.01.2018 18:00:00 -0,2 -0,3 7 4 18 10 NNE 991,1 19 0,0
18.01.2018 17:00:00 -0,2 -0,3 11 6 18 10 NE 990,6 13 0,1
18.01.2018 16:00:00 -0,1 -0,2 11 6 18 10 ENE 990,1 7 0,1
18.01.2018 15:00:00 0,0 -0,1 11 6 22 12 ENE 989,8 10 0,1
18.01.2018 14:00:00 0,1 0,0 7 4 14 8 ENE 990,0 9 0,0
18.01.2018 13:00:00 0,1 0,0 11 6 14 8 E 990,2 7 0,2
18.01.2018 12:00:00 -0,1 -0,2 7 4 14 8 E 991,1 5 0,1
18.01.2018 11:00:00 -0,3 -0,4 7 4 14 8 ESE 991,6 7 0,0
18.01.2018 10:00:00 -0,7 -0,8 7 4 14 8 ESE 992,2 5 0,0

tt = Température de l'air
td = dewpoint
ff = Vitesse du vent
fx = gusts
dd = Direction du vent
ppp = reduced air pressure
vv = visibility
rr = Quantités de précipitations

stations d'obs. à proximité